Alliance, NE

5:29 PM MST on February 23, 2017 (GMT -0700)
Alliance Municipal

Weather History for KAIA - September, 2013

Change the Weather History Date:

Monday, September 16, 2013

  Actual Average Record
Temperature  
Mean Temperature 57 °F 59 °F  
Max Temperature 61 °F 76 °F 96 °F (2000)
Min Temperature 52 °F 43 °F 28 °F (1903)
Degree Days  
Heating Degree Days 8 7  
Month to date heating degree days 20 70  
Since 1 July heating degree days 28 107  
Cooling Degree Days 0 1  
Month to date cooling degree days 117 32  
Year to date cooling degree days 776 555  
Growing Degree Days 6 (Base 50)    
Moisture  
Dew Point 52 °F    
Average Humidity 88    
Maximum Humidity 100    
Minimum Humidity 75    
Precipitation  
Precipitation 0.00 in 0.04 in 0.84 in (1950)
Month to date precipitation 0.71 0.80  
Year to date precipitation 9.77 13.21  
Sea Level Pressure  
Sea Level Pressure 30.13 in    
Wind  
Wind Speed 17 mph (SSE)    
Max Wind Speed 25 mph    
Max Gust Speed 31 mph    
Visibility 9 miles    
Events      
T = Trace of Precipitation, MM = Missing Value Source: NWS Daily Summary

Daily Weather History Graph

Daily Weather History Graph

Search for Another Location

Airport or City:

Trip Planner

Search our weather history database for the weather conditions in past years. The results will help you decide how hot, cold, wet, or windy it might be!

Date:

Astronomy

Sep. 16, 2013 Rise Set
Actual Time 6:32 AM MDT 6:58 PM MDT
Civil Twilight 6:04 AM MDT 7:26 PM MDT
Nautical Twilight 5:31 AM MDT 7:59 PM MDT
Astronomical Twilight 4:57 AM MDT 8:33 PM MDT
Moon 5:10 PM MDT (9/16) 3:18 AM MDT (9/16)
Length of Visible Light 13h 21m
Length of Day
12h 25m
Waxing Gibbous, 90% of the Moon is Illuminated
Sep 16
Waxing Gibbous
Sep 19
Full
Sep 26
Last Quarter
Oct 4
New
Oct 11
First Quarter

Hourly Weather History & Observations

Time (MDT) Temp. Dew Point Humidity Pressure Visibility Wind Dir Wind Speed Gust Speed Precip Events Conditions
12:53 AM 53.1 °F 51.1 °F 93% 30.23 in 10.0 mi SE 6.9 mph - N/A   Overcast
1:53 AM 53.1 °F 50.0 °F 89% 30.23 in 10.0 mi SSE 8.1 mph - N/A   Overcast
2:53 AM 53.1 °F 50.0 °F 89% 30.22 in 10.0 mi SSE 9.2 mph - N/A   Overcast
3:53 AM 54.0 °F 50.0 °F 86% 30.21 in 10.0 mi SSE 12.7 mph - N/A   Overcast
4:53 AM 53.1 °F 50.0 °F 89% 30.20 in 10.0 mi SSE 13.8 mph - N/A   Overcast
5:27 AM 53.6 °F 50.0 °F 88% 30.26 in 10.0 mi SSE 11.5 mph - N/A   Overcast
5:53 AM 53.1 °F 51.1 °F 93% 30.20 in 10.0 mi SE 12.7 mph - N/A   Overcast
6:10 AM 53.6 °F 51.8 °F 94% 30.26 in 10.0 mi SSE 16.1 mph - N/A   Overcast
6:53 AM 53.1 °F 51.1 °F 93% 30.21 in 7.0 mi SSE 16.1 mph - N/A   Overcast
7:53 AM 53.1 °F 51.1 °F 93% 30.22 in 10.0 mi SSE 16.1 mph 20.7 mph N/A   Overcast
8:53 AM 54.0 °F 51.1 °F 90% 30.22 in 10.0 mi SSE 16.1 mph 23.0 mph N/A   Overcast
9:53 AM 55.0 °F 51.1 °F 86% 30.20 in 10.0 mi SSE 18.4 mph 23.0 mph N/A   Overcast
10:53 AM 55.0 °F 52.0 °F 89% 30.20 in 10.0 mi SSE 16.1 mph - N/A   Overcast
11:53 AM 55.9 °F 52.0 °F 87% 30.17 in 10.0 mi South 18.4 mph - N/A   Overcast
12:53 PM 55.9 °F 52.0 °F 87% 30.14 in 10.0 mi SSE 19.6 mph 23.0 mph N/A   Overcast
1:32 PM 57.2 °F 53.6 °F 88% 30.18 in 10.0 mi SSE 20.7 mph - N/A   Overcast
1:53 PM 59.0 °F 53.1 °F 81% 30.12 in 10.0 mi SSE 19.6 mph 27.6 mph N/A   Overcast
2:53 PM 59.0 °F 52.0 °F 78% 30.10 in 10.0 mi SSE 20.7 mph 27.6 mph N/A   Overcast
3:26 PM 60.8 °F 53.6 °F 77% 30.13 in 10.0 mi SSE 20.7 mph - N/A   Overcast
3:53 PM 59.0 °F 53.1 °F 81% 30.06 in 10.0 mi South 20.7 mph - N/A   Overcast
4:53 PM 60.1 °F 53.1 °F 78% 30.04 in 10.0 mi SSE 19.6 mph 26.5 mph N/A   Overcast
5:41 PM 57.2 °F 53.6 °F 88% 30.08 in 10.0 mi SSE 20.7 mph - N/A   Mostly Cloudy
5:53 PM 57.9 °F 53.1 °F 84% 30.02 in 10.0 mi SSE 20.7 mph 29.9 mph N/A   Mostly Cloudy
6:29 PM 57.2 °F 53.6 °F 88% 30.08 in 10.0 mi South 18.4 mph - N/A   Overcast
6:53 PM 57.0 °F 53.1 °F 87% 30.02 in 10.0 mi SSE 21.9 mph 25.3 mph N/A   Overcast
7:53 PM 55.9 °F 54.0 °F 93% 30.02 in 10.0 mi SSE 20.7 mph 26.5 mph N/A   Overcast
8:53 PM 55.9 °F 54.0 °F 93% 30.02 in 10.0 mi SSE 19.6 mph 24.2 mph N/A   Overcast
9:53 PM 55.0 °F 54.0 °F 96% 30.01 in 5.0 mi SSE 18.4 mph - N/A   Overcast
10:06 PM 55.4 °F 53.6 °F 94% 30.06 in 5.0 mi South 18.4 mph 25.3 mph N/A   Overcast
10:53 PM 55.0 °F 54.0 °F 96% 30.00 in 3.0 mi SSE 18.4 mph 24.2 mph N/A   Overcast
11:08 PM 55.4 °F 53.6 °F 94% 30.05 in 2.5 mi South 17.3 mph 25.3 mph N/A   Overcast
11:38 PM 55.4 °F 55.4 °F 100% 30.04 in 3.0 mi South 19.6 mph 24.2 mph N/A   Overcast
11:53 PM 55.9 °F 55.0 °F 97% 29.98 in 5.0 mi South 17.3 mph 23.0 mph N/A   Overcast